This is the latest recevied weather packets stored in our database for station/object AD8AK. If no packets are shown the sender has not sent any weather packets the latest 1 day(s).
| Time | Temp. | Humidity | Pressure | Rain* | Wind** | Luminosity | Snow |
|---|---|---|---|---|---|---|---|
| 1778045504 | 7.78° C | 96% | 1008.8 hPa | 1.78 mm | - | - | - |
| 1778045202 | 7.78° C | 96% | 1009.1 hPa | 1.27 mm | - | - | - |
| 1778044900 | 7.78° C | 96% | 1009.4 hPa | 1.78 mm | - | - | - |
| 1778044597 | 7.78° C | 96% | 1009.4 hPa | 3.56 mm | - | - | - |
| 1778044293 | 7.78° C | 96% | 1009.1 hPa | 1.27 mm | - | - | - |
| 1778043688 | 7.78° C | 96% | 1009.2 hPa | 1.78 mm | - | - | - |
| 1778043081 | 7.78° C | 96% | 1009.1 hPa | 1.27 mm | - | - | - |
| 1778042779 | 7.78° C | 96% | 1009.1 hPa | 0 mm | - | - | - |
| 1778042476 | 7.78° C | 96% | 1009.3 hPa | 0 mm | - | - | - |
| 1778042173 | 7.78° C | 96% | 1008.8 hPa | 1.78 mm | - | - | - |
| 1778041871 | 7.78° C | 96% | 1008.7 hPa | 1.78 mm | - | - | - |
| 1778041570 | 7.78° C | 96% | 1008.9 hPa | 0 mm | - | - | - |
| 1778040966 | 7.78° C | 96% | 1009.1 hPa | 1.27 mm | - | - | - |
| 1778040662 | 7.78° C | 96% | 1009.1 hPa | 1.27 mm | - | - | - |
| 1778040360 | 7.78° C | 96% | 1009.1 hPa | 0 mm | - | - | - |
| 1778040056 | 7.78° C | 96% | 1009.2 hPa | 1.78 mm | - | - | - |
| 1778039753 | 7.78° C | 96% | 1009.3 hPa | 0 mm | - | - | - |
| 1778039450 | 7.78° C | 96% | 1009.1 hPa | 1.27 mm | - | - | - |
| 1778039147 | 7.78° C | 95% | 1009.4 hPa | 1.27 mm | - | - | - |
| 1778038845 | 7.78° C | 96% | 1009.5 hPa | 1.78 mm | - | - | - |
| 1778038541 | 8.33° C | 96% | 1009.4 hPa | 1.27 mm | - | - | - |
| 1778038238 | 8.33° C | 96% | 1009.2 hPa | 1.27 mm | - | - | - |
| 1778037936 | 8.33° C | 96% | 1008.8 hPa | 0 mm | - | - | - |
| 1778037632 | 8.33° C | 96% | 1009.1 hPa | 1.78 mm | - | - | - |
| 1778037330 | 8.33° C | 95% | 1008.9 hPa | 1.78 mm | - | - | - |
* Rain latest hour (hover to see other rain measurements)
** Current wind speed in m/s (hover to see current wind gust speed)